Wind_Speed
35 36 36 36 36 36 37 36 36 36 36 37 37 38 39 39 39 40 40 41 42 43 42 41 39 37 37 37 37 37 38 38 39 39 40 42 42 42 40 39 38 39 39 40 40 40 41 43 45 46 47 47 46 45 47 49 49 47 47 46 43 41 45 49 49 47 49 50 49 49 49 47 46 47 47 44 41 41 41 41 42 43 43 43 43
35 36 37 37 37 37 37 37 36 36 36 37 38 39 40 40 40 40 40 41 42 43 43 42 39 38 37 37 37 38 39 39 40 41 41 42 43 43 42 40 39 38 39 40 41 41 41 42 45 47 48 49 48 47 47 48 50 49 47 47 46 45 47 50 50 50 51 52 49 48 50 48 46 47 48 45 43 42 40 39 40 42 43 42 42
35 37 38 38 38 38 38 38 37 37 37 38 39 40 40 41 41 40 41 41 43 44 43 42 40 39 38 38 38 39 40 42 43 43 43 43 42 43 42 40 38 36 36 37 39 40 40 41 43 45 47 48 49 49 48 48 50 50 48 48 48 47 48 50 51 52 53 53 52 50 49 47 46 47 49 49 46 42 40 40 39 42 43 42 43
36 37 38 39 39 39 39 39 38 38 38 39 40 41 41 42 42 41 41 42 43 44 43 42 40 39 39 39 39 41 42 44 45 45 45 43 42 41 40 39 37 35 34 34 35 37 38 39 41 43 46 48 48 50 50 49 50 52 51 50 50 48 48 50 52 52 53 53 53 52 49 48 47 48 50 53 48 41 40 41 40 41 43 42 43
36 37 38 39 39 39 40 40 39 39 39 40 41 42 43 43 43 42 42 42 43 44 44 42 40 39 39 39 40 42 44 45 46 46 45 43 40 39 38 37 36 34 34 34 34 35 37 38 40 40 42 46 48 50 51 50 50 52 52 51 51 50 49 51 53 53 53 53 53 53 51 49 49 49 51 52 49 44 42 40 40 42 41 42 43
37 38 39 39 40 41 41 41 41 40 40 41 42 44 45 46 45 44 43 43 43 44 43 42 41 40 40 40 41 43 44 46 47 46 44 41 39 38 37 36 35 35 35 36 36 36 35 36 38 38 38 42 46 48 50 50 50 51 51 51 51 50 48 51 53 53 53 52 52 53 53 52 50 50 51 51 49 47 44 41 41 40 39 40 43
38 38 39 40 41 42 42 42 41 41 42 43 44 45 47 47 46 45 45 44 44 44 43 42 41 41 42 42 43 44 45 46 46 45 41 39 38 37 37 36 36 36 36 37 38 37 34 32 34 36 36 38 42 45 47 49 49 49 51 51 51 49 48 50 53 52 52 52 52 53 54 53 51 50 51 51 49 48 47 44 41 39 38 39 41
39 39 40 41 42 43 42 42 43 43 43 44 45 47 48 48 47 46 45 45 44 44 43 42 42 42 43 44 44 45 45 45 45 42 39 37 37 36 35 35 35 36 36 36 37 37 34 29 29 32 34 35 38 41 43 46 48 49 50 49 49 50 49 50 52 53 52 51 52 53 54 53 51 52 52 51 48 47 47 45 43 41 41 40 40
40 41 42 42 43 44 43 43 44 44 45 45 46 48 49 49 48 47 45 45 44 43 43 42 43 43 45 46 45 45 46 44 43 40 36 34 35 35 34 33 33 34 34 33 33 34 33 28 26 28 31 32 36 39 41 44 47 48 48 46 46 50 51 49 50 52 52 51 51 52 53 53 52 52 52 49 47 45 44 43 43 43 43 41 40
41 42 43 44 45 45 44 44 45 45 46 46 48 49 51 50 49 48 46 45 44 44 43 43 44 44 45 46 46 46 45 42 40 38 35 33 34 34 33 32 32 33 33 31 30 31 30 27 26 27 29 33 36 38 40 43 45 46 46 45 44 48 50 49 49 51 51 51 52 52 52 52 51 51 49 48 48 47 45 44 43 42 43 41 39
43 44 45 45 46 46 45 45 46 46 47 48 49 50 51 51 49 48 46 46 45 44 43 43 44 45 45 46 46 45 43 40 37 36 34 32 32 32 31 31 32 33 33 31 29 28 27 26 27 28 30 34 36 36 37 40 43 45 46 46 43 45 48 49 49 51 51 50 52 53 53 52 51 49 49 49 50 48 47 48 46 43 43 41 38
44 46 46 46 46 46 46 46 46 46 47 49 50 51 52 51 50 48 46 46 45 45 44 44 45 46 46 45 44 43 41 37 35 34 32 31 31 30 30 30 31 32 32 30 28 27 26 24 26 29 31 33 35 35 35 36 39 43 45 46 45 44 46 47 48 49 49 49 51 52 53 53 51 50 51 51 51 50 49 48 46 45 45 41 38
46 47 47 47 47 46 46 46 46 47 48 50 51 51 52 51 49 48 46 45 45 45 44 45 46 46 45 44 42 40 37 34 33 32 30 29 29 28 28 29 30 30 30 28 27 26 26 24 24 27 30 33 34 34 35 35 37 40 43 45 46 45 45 46 48 48 46 47 49 50 51 52 51 51 52 53 53 51 49 47 45 46 46 41 38
47 48 48 48 47 47 47 47 47 48 49 50 51 52 52 51 49 48 46 45 45 44 45 46 46 45 43 42 40 38 35 32 31 31 29 28 27 27 27 28 29 30 29 26 25 26 26 24 24 26 30 33 34 35 36 36 36 37 39 40 43 45 46 47 49 49 46 46 48 48 49 50 51 51 52 52 53 50 48 48 46 46 45 42 41
48 48 48 49 48 48 47 47 48 49 50 51 52 52 51 50 48 47 46 45 44 44 45 45 44 43 42 40 37 35 33 30 29 29 28 27 26 27 27 28 28 29 29 26 23 25 26 23 23 27 29 33 36 36 37 37 38 38 38 38 39 42 45 46 48 49 47 46 46 46 47 48 50 51 51 50 50 49 49 50 49 48 48 47 46
49 49 49 49 49 49 48 48 49 49 50 51 51 51 50 48 48 47 46 45 44 44 44 42 41 41 39 36 33 32 31 29 28 28 28 26 26 27 27 28 28 28 30 28 23 23 24 23 23 27 30 33 36 38 37 37 37 39 40 40 39 40 41 42 44 46 45 44 44 46 47 48 48 49 49 48 48 49 50 51 51 50 50 50 49
50 49 49 49 49 49 49 49 49 50 50 50 50 50 49 49 49 48 46 44 44 43 42 40 39 38 35 32 30 30 30 29 28 27 28 26 26 27 28 29 29 29 30 29 25 21 21 21 21 26 30 32 34 37 38 37 37 37 39 40 41 40 38 38 41 43 43 43 44 45 47 48 48 48 48 48 48 49 51 52 51 50 50 51 50
50 49 49 49 49 49 49 48 49 49 49 49 48 48 49 49 49 48 46 44 43 41 40 36 34 34 32 30 28 27 28 29 28 28 28 27 26 28 28 29 30 30 31 31 28 23 19 19 19 22 28 30 32 35 37 38 37 37 37 39 40 40 38 37 39 41 42 43 43 44 47 48 48 48 47 47 47 48 50 51 51 50 50 52 52
49 48 48 48 49 49 48 48 48 48 49 48 47 47 49 50 50 48 46 44 42 40 39 36 32 31 30 28 27 26 27 28 29 29 28 27 27 29 29 29 30 31 32 33 31 27 22 20 19 18 23 28 30 32 34 36 37 37 37 39 40 39 38 38 39 39 40 42 42 43 45 48 48 47 48 47 46 48 50 50 50 51 51 52 53
48 47 47 47 48 49 49 48 48 48 47 46 46 48 50 51 50 49 47 44 41 39 39 36 33 31 29 27 26 26 26 27 29 29 28 27 27 29 30 29 30 31 33 34 32 29 25 22 20 17 16 22 27 29 30 33 35 36 37 39 40 39 39 39 39 37 38 41 42 42 44 47 47 47 47 47 47 48 50 49 50 50 50 52 54
47 46 45 46 48 49 48 48 48 48 46 45 46 49 51 51 50 49 46 42 39 38 37 35 32 29 28 27 25 24 25 26 27 28 27 27 27 28 29 29 29 30 32 34 33 30 27 24 21 16 11 12 19 24 26 27 31 32 35 40 41 39 39 39 37 35 36 39 41 42 44 45 46 46 45 46 47 48 49 48 48 49 48 51 55
48 47 46 46 47 47 47 47 47 48 47 46 47 50 51 50 50 48 44 41 38 37 36 35 31 28 27 27 25 23 23 25 27 27 27 26 26 27 28 28 28 29 30 32 33 31 27 25 22 17 11 9 11 18 21 22 24 27 32 37 38 36 37 38 36 34 35 37 38 40 42 43 44 44 44 44 45 46 48 48 48 49 48 49 52
49 48 46 46 46 46 47 47 47 47 48 48 49 50 50 49 48 45 41 39 37 36 35 34 31 29 27 26 24 22 22 25 28 27 26 25 25 26 27 27 27 28 29 31 32 31 28 26 23 19 12 9 9 11 16 17 18 23 28 32 34 34 35 36 36 34 35 37 39 40 41 42 42 42 42 43 43 45 47 49 49 49 49 48 50
48 47 46 45 45 46 46 46 47 47 48 49 49 49 49 48 45 41 38 36 36 35 34 32 31 29 27 25 23 22 22 25 27 27 26 25 24 24 25 26 26 27 29 30 31 30 29 27 24 20 14 9 8 6 10 13 13 18 24 27 29 32 34 34 35 35 36 37 39 41 41 41 42 42 42 42 43 45 47 48 49 50 49 48 49
46 46 45 45 45 45 45 45 46 47 48 48 48 48 48 47 43 40 38 37 35 34 34 31 30 28 26 24 22 22 23 25 26 26 25 24 23 23 24 24 25 26 27 29 30 29 29 28 24 21 17 11 7 4 5 11 12 13 19 25 27 28 31 32 32 34 36 37 37 38 39 40 41 42 42 42 43 45 46 47 48 49 48 47 48
45 44 44 44 44 44 44 44 45 46 47 47 47 47 47 46 43 40 39 37 35 34 32 29 28 27 25 24 23 23 23 24 25 25 24 23 23 23 24 24 24 25 26 28 29 29 28 28 26 23 20 15 10 6 2 10 12 9 12 22 28 27 27 28 30 32 35 36 35 34 36 38 39 39 40 40 41 42 44 45 45 46 46 45 46
44 44 44 44 44 43 44 44 45 45 46 46 46 47 46 44 42 41 40 38 36 33 29 26 26 26 26 26 25 24 24 24 25 25 24 22 22 23 23 23 23 24 25 27 29 29 28 28 27 24 22 19 14 9 3 6 11 10 8 16 25 29 28 27 28 32 35 35 34 33 35 37 36 35 35 37 39 40 41 42 43 44 44 44 44
44 44 44 43 43 43 43 43 43 44 45 45 46 46 44 42 40 41 40 37 36 32 27 25 25 25 25 25 24 23 23 24 25 25 24 23 22 22 23 23 23 24 25 26 28 29 28 28 28 25 22 20 16 12 7 4 6 11 10 11 18 27 31 30 29 31 34 35 34 32 32 35 34 33 33 34 36 38 39 40 41 42 42 42 42
43 43 43 42 42 42 41 41 42 42 43 44 44 44 43 41 40 40 39 37 34 30 26 24 24 23 22 21 21 21 22 23 23 24 23 23 22 22 23 23 23 24 24 25 26 27 27 27 27 27 24 21 19 15 11 8 4 7 10 10 10 16 26 33 34 32 32 34 36 35 33 31 31 32 32 33 34 36 37 37 40 41 40 40 40
42 42 42 41 41 41 40 40 41 41 42 43 43 42 41 41 40 39 36 33 30 26 23 21 21 20 18 18 18 19 20 21 22 23 22 22 22 22 23 23 23 24 24 24 24 25 26 25 25 26 25 22 20 17 14 11 8 5 5 8 10 10 16 27 35 35 31 29 33 37 36 32 30 31 32 33 35 37 37 37 38 39 40 40 40
42 42 41 40 40 39 39 39 40 40 40 40 41 40 40 39 37 34 29 25 23 21 19 18 18 17 17 17 17 18 19 20 21 22 22 22 22 22 23 24 24 24 23 22 23 24 25 23 22 23 23 23 21 18 16 14 10 8 5 3 7 11 13 18 27 34 33 27 25 30 34 35 35 34 33 34 36 38 39 40 40 40 40 41 40
41 41 40 40 39 38 38 38 38 39 39 38 38 38 38 36 33 29 24 19 17 16 16 15 15 16 16 16 16 17 18 20 20 21 21 21 21 22 22 24 25 24 22 22 22 23 24 23 21 20 20 21 21 20 18 16 13 10 9 5 2 6 11 14 18 25 30 28 23 22 25 29 33 35 35 37 39 39 40 42 41 41 41 42 41
40 40 39 39 38 37 36 36 36 37 37 37 36 36 36 34 30 25 21 17 15 15 15 14 14 15 15 15 15 17 19 19 20 20 20 20 21 21 22 23 25 24 22 22 22 22 22 22 21 20 19 19 20 20 19 18 16 14 11 9 6 2 4 10 13 16 21 24 23 22 24 26 28 30 33 36 39 40 41 42 41 41 42 41 41
39 39 38 38 37 35 34 34 34 35 35 35 34 34 35 34 28 22 18 16 16 16 16 15 15 15 16 16 17 18 19 20 19 19 20 20 21 21 21 22 23 22 22 22 22 21 21 21 20 19 18 18 18 19 19 18 18 16 15 12 10 8 4 3 7 11 14 18 20 23 25 28 28 27 28 31 33 36 38 39 40 41 41 41 41
38 37 37 36 34 33 32 32 33 33 34 34 33 33 34 32 26 21 18 18 18 19 19 18 17 17 18 19 20 21 21 21 20 20 20 20 20 21 21 21 21 21 20 20 20 20 19 19 19 19 18 17 17 17 17 17 17 17 17 16 14 12 9 6 4 6 10 13 16 18 22 25 26 25 26 27 29 31 33 36 38 40 41 42 43
36 36 35 34 32 31 31 32 32 32 32 33 32 31 32 29 24 21 20 20 20 20 20 20 20 21 21 21 22 23 23 23 22 21 20 20 20 21 21 20 20 20 19 18 18 18 18 18 18 18 17 17 17 17 16 17 17 17 17 17 16 15 13 10 8 5 4 7 10 13 17 21 23 23 24 24 25 27 30 33 37 41 43 44 44
35 35 34 33 32 32 32 32 33 32 31 31 31 31 30 28 25 23 23 23 22 23 23 23 22 22 22 22 23 24 24 23 23 22 21 20 20 21 21 20 20 19 18 17 17 16 16 16 16 17 17 17 17 17 17 17 17 17 17 17 17 16 15 14 12 10 8 5 4 6 10 14 17 19 21 23 23 23 25 28 31 35 39 41 42
33 34 33 33 33 33 33 33 34 33 31 31 30 30 30 29 28 26 24 22 22 23 23 23 22 22 22 23 23 23 22 22 22 22 22 22 22 21 21 21 20 19 19 18 16 16 16 16 16 17 17 17 17 18 17 17 17 17 18 17 17 17 17 16 15 13 12 11 9 7 6 7 10 12 15 18 19 19 21 23 25 28 31 35 37
33 33 33 33 33 33 33 33 34 33 31 31 31 31 30 31 31 29 26 24 23 23 23 22 22 22 22 23 23 23 24 24 24 23 22 22 22 22 22 21 21 21 21 20 18 17 17 17 18 18 19 19 19 19 20 19 19 19 19 18 18 17 17 17 17 16 14 13 12 12 11 9 8 8 9 11 13 15 17 19 21 23 26 29 32
32 32 33 33 33 33 32 32 33 33 31 31 31 32 31 31 30 29 28 27 26 25 24 23 23 23 24 24 25 25 26 26 25 25 23 23 23 24 23 22 22 22 22 22 21 20 19 19 20 20 21 21 21 21 22 22 21 21 21 20 20 19 18 18 18 18 17 16 15 13 13 13 12 12 11 10 10 12 13 15 17 19 22 24 27
31 31 31 31 31 31 31 31 31 32 32 31 31 32 32 31 30 28 27 27 27 27 27 26 26 26 26 26 27 27 27 27 27 26 26 25 25 25 24 23 23 23 23 24 24 24 23 22 22 22 22 23 23 23 23 23 22 22 22 22 22 22 21 20 20 19 19 19 19 18 16 15 15 15 14 14 12 12 12 13 14 15 17 19 21
30 30 30 30 29 29 30 31 30 30 31 31 30 30 30 30 30 30 29 30 30 30 30 29 28 28 27 28 28 28 27 27 27 27 27 27 27 26 26 25 25 24 25 25 26 26 26 26 26 25 25 25 25 25 25 24 24 23 23 23 23 23 23 23 23 22 22 21 21 21 21 20 19 18 18 17 16 15 15 14 14 15 15 16 17
29 29 28 28 29 29 29 30 30 30 30 31 30 29 29 30 30 31 32 32 31 31 30 29 28 28 27 27 27 27 26 26 26 26 27 27 27 27 26 26 26 26 27 27 28 28 28 29 29 28 28 27 27 27 27 27 26 25 25 24 24 24 24 24 25 25 25 25 24 24 24 24 23 23 22 21 21 20 19 18 18 18 18 17 17
28 28 28 28 28 29 29 29 30 30 31 32 32 31 30 30 31 32 33 33 33 32 31 29 28 27 27 27 26 26 26 26 26 27 27 27 28 28 27 27 27 28 28 29 30 30 31 31 31 31 30 30 29 29 29 29 29 29 28 27 27 26 26 26 26 26 26 27 27 27 27 27 27 26 26 26 25 24 23 22 22 23 22 22 21
28 27 27 27 27 27 28 28 29 30 31 32 32 32 31 31 31 31 32 33 33 32 31 29 28 28 27 27 27 27 27 28 28 28 28 29 29 29 29 29 29 29 30 31 31 32 32 33 33 33 33 33 33 32 32 32 32 32 32 31 31 30 29 29 28 28 28 28 28 29 29 30 30 30 29 29 29 28 27 27 26 26 26 26 25
27 26 26 26 26 27 27 28 28 29 30 30 30 30 31 31 31 31 31 31 31 31 30 29 28 28 27 27 28 28 28 29 29 29 29 30 30 31 31 31 31 31 31 31 32 33 33 34 34 35 35 35 35 35 35 35 35 34 35 35 34 34 34 33 32 32 32 31 31 31 31 32 32 32 32 32 32 32 32 31 30 30 29 29 29
27 27 27 27 27 28 28 28 29 30 30 30 30 29 30 30 31 31 30 30 30 29 29 29 28 28 28 28 28 29 29 29 30 30 30 31 31 31 31 32 32 32 33 33 33 34 34 35 35 36 36 37 37 37 37 38 38 38 37 37 37 37 37 37 36 36 35 35 35 34 34 34 34 35 35 35 35 35 35 35 34 34 33 33 32
28 28 28 29 29 29 29 30 30 30 31 31 31 30 30 31 31 31 31 31 30 30 29 29 29 29 29 29 29 29 30 30 31 31 31 32 32 32 32 33 33 34 34 35 35 35 36 37 37 38 38 38 39 39 39 39 39 40 40 40 39 39 39 39 39 38 38 38 38 37 37 36 36 37 37 37 38 38 38 38 38 37 37 37 36
30 30 30 31 31 31 31 30 30 30 30 31 31 31 31 31 31 31 31 31 31 31 31 30 30 30 30 30 30 30 31 31 32 32 32 33 33 34 34 35 35 35 36 37 37 37 38 38 39 39 39 39 39 39 39 39 39 39 39 39 39 39 39 38 38 38 38 38 38 38 38 38 38 38 38 38 39 39 40 40 41 41 41 40 40
32 32 32 32 31 31 30 30 29 29 30 30 31 31 32 32 32 32 32 32 32 32 32 32 32 32 32 32 32 32 33 33 33 34 34 34 35 35 35 35 36 36 37 37 37 37 37 37 37 37 37 37 37 37 36 36 36 36 36 36 37 37 37 37 37 37 37 37 37 37 38 38 38 38 39 39 39 39 40 41 42 42 43 43 43
32 32 32 31 31 30 29 29 29 30 30 30 31 31 31 31 32 32 33 33 33 34 34 34 34 33 33 33 33 33 33 34 34 34 34 35 35 35 35 35 35 35 35 35 35 34 34 33 33 33 32 32 32 32 32 32 32 32 32 33 33 33 34 35 35 35 35 35 36 36 36 36 37 37 38 38 39 39 40 41 42 43 44 44 45
Wind_Direction
310 310 309 308 307 307 308 307 307 308 309 311 313 316 317 317 316 314 312 310 310 309 310 312 313 311 310 308 307 306 306 305 303 303 304 306 307 306 302 295 290 287 285 283 280 274 265 258 256 255 253 253 252 250 248 244 239 237 235 233 235 237 239 237 230 225 227 232 235 235 235 236 236 237 241 244 245 243 239 236 236 236 235 235 236
307 308 308 308 307 307 307 307 306 307 308 310 312 314 316 316 315 314 312 310 310 310 311 313 313 311 310 309 307 306 306 305 304 303 304 305 305 304 301 296 293 289 285 282 280 277 271 262 256 254 254 253 252 252 249 245 242 239 234 233 235 236 238 237 231 226 226 232 239 239 236 236 237 238 238 240 243 241 238 236 235 235 235 236 236
305 306 307 308 307 307 307 307 307 307 308 309 311 313 315 315 315 313 312 311 310 311 311 312 312 312 311 310 307 305 304 304 304 303 304 305 304 302 300 299 297 292 287 285 282 279 274 267 260 255 253 252 251 251 248 244 242 240 236 234 234 236 239 236 231 229 227 231 239 240 238 239 240 240 238 237 238 236 234 234 234 235 235 236 236
303 305 307 308 307 306 306 307 307 307 307 309 310 312 314 315 315 313 312 311 311 311 311 312 312 312 311 311 308 306 305 305 305 305 304 305 303 301 300 300 298 295 291 288 286 283 276 269 264 260 254 250 247 247 246 243 241 239 237 235 233 235 239 234 230 230 229 231 237 240 239 239 240 242 240 238 237 234 231 232 232 233 235 236 237
302 304 306 307 307 306 306 307 307 307 307 308 309 312 314 315 315 313 312 311 310 310 311 311 312 312 311 311 309 307 306 306 305 306 306 306 303 300 300 300 298 296 293 291 291 290 281 271 266 263 257 251 245 244 244 242 241 238 236 235 233 235 237 235 232 232 231 231 235 237 238 237 239 242 242 239 237 234 232 231 230 231 233 236 239
301 303 306 307 307 306 306 307 308 307 307 308 310 312 314 314 314 313 312 311 310 310 311 311 311 311 310 310 309 307 306 306 306 307 307 307 304 302 302 301 300 298 294 292 294 295 287 275 267 263 259 253 246 242 241 240 240 237 236 235 233 233 235 235 233 233 233 232 233 235 237 236 238 241 242 239 236 234 233 232 231 232 233 235 239
300 303 305 307 307 307 308 308 308 308 308 309 311 313 313 313 313 313 312 311 311 311 310 310 310 309 309 309 308 307 306 306 306 307 308 307 305 305 305 304 303 301 298 295 295 297 291 279 268 263 259 253 247 241 239 239 239 235 234 235 233 231 234 235 233 232 232 232 233 234 235 236 237 238 239 238 235 233 234 235 234 234 235 235 237
300 303 306 308 308 308 309 309 309 309 310 311 312 312 312 312 312 312 312 311 311 311 310 309 308 308 308 308 309 308 307 306 306 306 307 306 305 306 307 306 306 304 301 296 295 296 293 283 271 265 259 252 244 239 237 238 237 233 233 235 234 231 232 234 233 231 230 230 231 232 233 233 235 237 237 236 235 234 236 237 234 233 234 234 235
302 305 307 308 309 309 310 310 310 310 310 310 311 311 311 311 312 312 312 311 311 310 309 307 306 306 306 307 308 307 306 305 305 304 305 304 304 307 309 309 308 306 302 298 294 293 290 282 272 266 260 250 240 234 233 234 233 231 231 233 234 233 232 234 234 232 230 229 229 230 231 230 232 235 236 236 235 234 234 234 231 229 230 231 232
303 306 307 308 309 310 310 310 310 309 309 310 311 311 311 312 313 313 312 311 310 309 307 306 305 305 305 306 306 306 305 304 304 303 303 303 305 308 310 311 310 308 305 301 296 293 288 277 268 262 254 245 239 234 232 233 232 230 230 231 232 233 233 234 235 232 230 229 229 230 230 230 231 233 234 236 236 233 231 231 231 230 230 230 230
305 306 307 308 309 309 310 309 309 308 308 310 312 312 312 313 313 312 312 310 308 307 307 306 305 305 305 306 305 304 303 303 302 301 301 303 306 309 312 313 312 310 307 302 296 296 291 275 262 259 250 241 238 235 234 235 233 231 232 233 234 234 233 233 234 232 230 230 229 229 230 230 231 231 232 234 236 234 231 231 233 234 232 231 230
304 306 307 308 308 308 308 307 307 307 309 311 313 314 313 313 313 312 311 309 308 307 307 306 306 306 306 306 304 303 303 302 300 299 301 303 306 310 313 314 314 311 308 302 296 297 297 280 261 257 252 243 237 235 234 236 235 234 235 236 237 237 235 234 234 233 232 230 229 229 230 231 232 231 231 233 235 235 233 232 233 234 233 232 231
304 305 307 307 307 307 307 306 307 308 310 312 314 314 314 313 313 312 310 309 308 308 308 307 307 306 306 306 304 303 302 300 297 297 300 302 306 311 314 315 315 312 306 302 297 296 298 287 264 254 251 247 241 236 235 236 237 237 238 239 239 239 238 237 238 237 235 233 231 231 230 231 232 231 230 232 234 235 236 236 234 232 231 231 230
304 305 306 307 307 307 307 307 308 309 311 313 314 314 313 313 313 312 311 310 309 309 308 308 308 307 306 306 305 304 301 297 295 297 299 302 305 311 315 316 317 314 306 301 297 298 301 292 270 255 250 248 245 241 238 238 237 238 240 241 241 240 239 239 239 240 240 236 233 232 231 231 232 231 230 231 233 235 237 237 234 230 228 228 228
304 306 307 307 307 307 308 308 309 310 312 313 313 313 313 313 312 312 312 311 310 310 310 309 308 307 307 307 306 304 301 297 295 297 299 301 305 310 314 317 319 316 309 302 298 302 308 299 274 259 252 247 245 244 242 240 239 240 242 243 242 242 241 240 239 240 240 237 233 232 231 231 232 233 232 232 234 236 237 237 235 232 229 227 227
305 307 307 307 307 308 308 308 309 311 312 312 313 313 313 312 312 311 311 311 311 311 310 309 308 307 308 309 308 305 302 299 297 297 298 301 304 308 313 318 321 319 312 305 303 309 315 305 279 263 257 251 246 243 242 241 240 241 243 244 244 242 242 242 240 239 238 235 233 230 228 229 231 230 230 230 232 235 237 237 236 234 230 226 226
306 307 307 307 307 307 308 308 309 310 311 312 313 313 312 311 311 312 312 312 312 312 310 309 308 307 305 305 306 306 305 302 299 297 298 301 303 307 312 316 320 321 315 307 306 312 319 313 288 263 256 254 250 245 243 241 239 240 242 244 244 242 241 242 240 237 235 233 230 228 227 228 228 227 227 229 230 234 236 237 237 235 230 225 224
306 307 307 307 306 306 307 307 308 309 310 311 312 312 311 311 311 313 313 312 311 311 309 308 308 308 305 299 297 300 302 302 300 298 299 303 305 306 310 314 318 320 318 312 310 312 318 321 306 272 255 253 254 251 248 244 241 239 240 243 244 241 240 240 238 236 233 232 230 228 227 227 226 225 227 230 231 233 236 236 237 235 229 224 222
305 306 306 306 305 305 306 306 307 308 309 310 310 310 311 311 311 312 312 311 309 305 303 303 303 303 303 299 295 297 300 301 300 300 301 304 306 307 309 312 315 317 318 316 315 314 315 320 319 294 262 251 252 253 252 250 246 241 239 241 242 241 238 237 237 235 233 232 231 228 226 226 227 227 229 232 233 235 236 236 235 234 229 223 221
305 305 306 305 305 305 305 306 307 308 309 310 309 309 310 310 311 312 313 313 309 302 298 298 297 297 298 298 297 297 298 298 298 300 303 305 307 307 308 311 313 314 315 315 317 318 315 314 321 316 281 255 249 250 252 252 250 245 240 239 239 239 238 237 236 235 234 232 230 227 225 226 228 229 231 233 235 236 237 237 236 235 231 224 220
304 305 305 305 305 304 305 306 307 308 310 309 308 308 310 310 311 313 314 313 309 302 297 294 293 294 296 296 297 296 296 297 299 300 303 306 307 307 308 310 312 313 313 314 318 321 317 312 318 327 319 281 260 253 251 253 252 247 241 238 237 236 236 237 237 235 233 233 231 229 227 228 230 232 233 235 236 237 238 238 236 236 232 226 222
305 305 305 305 305 305 306 308 309 309 310 309 308 309 310 311 312 313 314 312 307 301 296 292 290 291 293 295 295 295 297 300 300 299 301 304 306 307 308 310 312 313 314 316 320 324 321 315 317 325 338 338 296 264 249 248 250 245 239 238 237 235 234 236 238 236 233 233 232 232 231 232 233 235 236 237 238 238 238 238 236 235 233 228 224
305 306 305 305 305 306 308 309 310 310 310 309 309 310 311 312 312 312 312 311 307 301 295 290 287 288 292 293 291 294 299 298 295 296 301 305 306 307 308 312 314 315 317 319 322 326 326 321 319 322 333 0 344 286 250 240 245 245 240 236 234 232 233 234 235 235 232 231 230 231 233 234 236 237 238 239 239 238 238 237 236 234 231 229 227
304 305 305 306 307 308 309 310 310 310 310 310 310 311 312 311 311 312 311 309 306 301 295 289 285 286 289 290 288 291 295 294 292 296 302 307 309 310 309 312 316 317 320 322 324 329 331 326 323 324 327 352 10 316 251 233 237 243 239 232 227 227 229 230 230 229 227 226 226 227 229 231 233 235 237 238 238 237 236 235 235 234 232 229 228
305 305 306 307 308 309 309 309 309 309 309 310 311 311 311 311 311 311 309 306 303 300 295 288 282 281 284 285 286 289 291 292 293 295 297 302 309 311 310 313 317 318 320 323 326 331 334 332 329 328 330 339 1 354 241 221 224 231 224 220 220 221 222 224 224 223 222 222 223 226 228 229 231 233 233 234 234 234 233 234 233 233 232 231 230
306 307 307 307 307 308 308 308 308 309 310 311 311 311 311 312 311 309 306 302 299 298 294 286 278 278 279 280 283 288 288 289 293 295 297 300 305 308 310 313 316 319 320 323 327 332 335 336 336 335 335 334 335 339 246 211 219 224 204 204 211 217 217 216 218 219 219 219 221 225 228 229 231 232 231 230 230 230 229 230 231 231 231 230 228
308 307 306 306 306 306 307 308 309 310 310 310 310 310 312 313 311 306 303 300 296 294 291 282 275 276 277 277 281 284 284 286 291 295 298 301 302 304 307 312 315 318 320 322 326 331 334 338 340 340 337 333 328 324 308 216 217 224 201 187 196 206 212 211 212 216 219 215 212 217 222 223 223 226 227 227 227 227 226 225 226 228 228 228 227
306 305 304 304 305 305 307 308 309 309 310 310 310 311 312 313 309 303 300 297 293 289 285 280 276 276 275 274 276 279 280 282 287 291 295 300 302 302 306 311 315 317 318 320 323 328 332 336 339 340 338 336 334 328 319 288 221 220 218 190 181 192 203 207 208 214 217 210 200 201 212 215 213 214 219 222 223 223 224 224 224 225 225 226 226
304 303 303 303 303 305 306 307 307 307 308 309 310 311 312 312 308 302 297 293 289 285 280 277 276 275 273 272 275 278 281 283 285 289 293 299 303 304 306 312 316 315 315 318 320 323 328 332 335 339 340 338 338 337 328 318 285 226 222 217 198 191 194 200 206 213 215 209 199 195 201 207 208 208 211 214 216 217 218 222 224 225 226 226 226
302 302 301 301 301 303 304 306 306 306 307 308 310 311 312 310 308 303 296 289 284 280 276 273 274 273 272 273 277 281 285 288 289 292 297 301 305 308 309 313 316 315 314 316 317 318 322 326 331 335 338 338 339 341 340 333 318 286 236 223 229 222 198 195 203 212 217 214 207 203 202 200 201 207 211 211 212 213 213 217 221 223 224 227 226
302 300 300 300 300 302 304 304 304 305 306 308 309 311 311 312 310 306 297 286 277 274 272 270 270 272 273 274 278 283 287 292 294 297 302 306 308 309 311 312 314 315 313 313 315 315 316 320 325 329 333 338 339 341 344 345 335 315 300 246 222 230 222 204 202 210 218 220 210 203 202 199 199 204 209 211 213 214 213 214 217 220 223 225 224
301 299 299 299 300 301 302 303 303 304 306 307 308 310 311 312 311 305 295 283 272 267 266 265 267 271 273 274 280 285 287 291 294 296 301 304 305 307 309 310 311 313 312 311 312 313 313 313 318 323 328 334 339 342 344 347 349 338 320 311 257 215 222 219 210 209 213 216 211 206 208 206 203 204 207 209 212 216 216 216 216 218 222 225 225
299 297 298 299 300 301 301 301 302 303 304 306 308 309 308 310 310 302 290 279 269 263 262 264 267 271 274 278 286 291 292 291 292 294 298 301 302 303 306 307 308 310 310 309 309 309 309 308 311 317 323 328 333 340 344 346 350 353 343 329 324 307 214 215 217 214 211 210 211 216 221 220 214 211 210 209 211 214 217 218 218 218 221 224 226
297 296 298 299 299 299 299 299 301 302 303 304 306 306 306 308 306 296 282 274 269 265 264 264 266 269 274 280 289 296 297 294 293 294 296 298 300 302 303 305 306 306 307 307 308 308 307 307 308 312 318 322 326 331 337 342 346 351 353 348 336 327 314 224 212 215 213 209 208 210 215 217 216 213 211 209 210 212 214 215 215 216 217 220 223
295 296 298 298 297 297 297 298 299 300 302 303 303 305 307 305 298 286 279 274 271 268 265 264 266 271 276 282 290 297 299 296 294 293 294 295 298 301 304 305 306 306 306 307 307 307 306 305 307 310 314 319 324 326 329 335 340 344 348 352 350 342 332 312 260 223 211 208 208 210 213 214 214 213 210 208 208 211 213 214 214 215 217 219 222
295 296 297 296 294 293 294 295 296 297 300 301 301 303 305 301 291 282 278 275 273 273 272 271 272 276 279 284 290 294 295 294 293 293 294 296 298 301 304 305 305 306 307 306 306 306 305 303 305 310 314 317 321 325 326 327 331 335 339 342 345 346 345 338 324 300 249 216 211 215 219 220 220 221 220 217 212 210 210 212 214 216 218 220 220
294 295 295 293 291 291 291 293 294 295 296 298 299 300 301 297 288 281 277 274 272 274 275 275 276 277 279 282 286 289 291 292 292 293 296 299 300 300 301 302 302 302 303 304 304 304 304 304 305 309 313 316 318 321 323 323 323 325 328 330 332 335 339 341 340 334 327 313 270 233 225 224 225 227 228 228 226 221 217 215 214 215 216 216 217
293 294 294 292 290 290 290 291 292 292 292 293 294 295 296 293 289 285 282 277 274 273 274 274 276 277 279 283 286 290 293 294 294 294 296 297 299 299 299 300 300 299 298 298 299 298 298 300 302 305 308 312 314 315 316 318 319 319 319 321 323 324 326 328 331 333 332 331 329 319 288 252 240 236 232 230 230 229 227 225 224 223 221 220 221
293 293 292 291 290 289 289 290 289 288 287 287 289 291 292 292 290 289 287 285 285 285 283 280 278 279 280 282 285 290 294 295 294 294 294 294 294 295 296 296 296 295 293 292 291 291 291 292 295 299 301 304 307 309 310 311 312 313 314 314 315 316 316 317 318 320 322 323 325 325 322 312 298 279 259 244 238 235 232 229 229 229 229 228 229
292 291 291 290 289 288 288 288 287 286 285 285 286 289 290 291 290 289 288 288 289 290 289 287 284 282 280 281 283 287 292 293 293 292 291 291 290 290 291 292 291 290 289 288 287 287 287 287 288 291 294 298 300 303 304 305 306 307 307 307 307 308 309 309 309 310 310 311 310 311 311 312 310 306 297 283 267 255 247 240 234 231 231 232 233
290 290 290 289 288 288 288 288 287 286 286 286 286 287 288 288 287 286 287 287 288 289 289 289 288 286 284 284 286 289 291 292 292 291 289 289 288 288 288 289 288 287 286 286 285 285 286 287 287 286 287 290 293 295 297 298 299 299 300 300 301 301 301 302 302 302 302 303 303 303 301 300 298 298 298 297 293 286 277 269 259 250 244 241 239
287 288 288 287 286 286 287 287 287 286 286 286 286 286 286 286 285 286 288 289 289 290 290 290 290 289 287 287 288 290 291 291 291 291 290 289 289 289 288 288 288 287 286 285 284 284 285 286 287 288 287 286 287 289 290 290 291 291 292 293 294 294 295 295 296 296 296 296 297 297 297 296 294 292 291 289 288 288 287 285 281 274 267 261 255
285 285 285 285 284 284 284 284 283 283 283 284 285 285 284 284 285 287 289 290 290 289 289 288 287 286 286 286 287 288 289 289 289 290 290 289 289 288 288 287 287 287 286 286 285 285 284 285 286 287 287 287 286 286 286 286 286 286 286 286 286 287 287 288 289 290 291 291 291 291 292 292 292 291 290 288 285 283 281 281 280 278 276 273 269
283 282 282 282 283 283 282 282 281 280 280 282 284 285 283 282 283 285 286 287 287 287 287 286 285 284 284 284 284 285 285 286 286 286 286 286 286 285 285 285 285 285 285 285 285 285 285 284 284 284 285 285 285 285 284 284 284 284 284 283 282 282 281 282 282 283 284 285 286 287 287 287 287 288 288 287 286 284 281 279 278 277 276 275 273
281 280 280 280 281 281 281 281 281 281 281 281 282 282 282 281 281 281 282 283 284 285 285 285 285 284 284 283 283 283 282 282 282 282 281 282 282 283 283 284 284 283 283 284 284 285 285 285 285 285 284 284 284 284 284 284 284 284 284 284 283 282 281 280 280 279 279 279 280 281 282 282 282 283 283 283 284 283 282 280 278 276 275 275 274
279 278 277 277 278 279 280 281 281 282 282 281 281 280 281 282 282 282 281 282 283 284 285 286 285 284 284 283 282 282 281 281 280 280 280 280 281 282 282 283 283 283 282 282 282 283 283 284 284 284 284 284 284 284 284 284 284 284 284 284 284 283 283 282 281 280 279 278 277 277 277 277 278 278 278 278 279 280 280 279 278 277 275 274 273
277 276 275 275 276 277 277 278 280 281 281 281 281 280 280 281 282 282 282 283 283 284 286 286 286 285 284 284 283 282 282 282 281 281 280 281 281 281 281 282 282 282 282 282 282 282 282 283 283 283 284 284 284 284 284 284 284 284 284 284 283 283 283 282 282 280 279 278 277 276 275 274 274 274 274 275 274 275 275 275 275 275 275 274 273
277 276 276 276 276 276 277 277 277 278 279 280 280 280 279 279 280 281 283 284 285 285 285 285 284 284 284 283 283 282 282 282 282 282 282 282 282 282 282 282 282 283 283 283 283 283 282 283 283 283 284 284 284 284 284 284 284 284 283 283 283 282 282 281 281 280 279 278 277 276 275 274 272 272 271 271 272 272 272 271 271 271 271 271 271
278 277 277 277 277 277 277 277 277 277 278 278 278 279 279 279 280 282 284 285 285 285 285 285 284 284 283 282 282 282 281 281 282 282 283 283 283 283 283 283 284 284 284 284 283 283 283 283 282 283 283 283 283 283 283 283 283 282 282 282 282 281 281 280 279 279 278 277 276 275 275 274 272 271 270 269 269 269 269 269 269 269 269 268 268
278 277 277 277 278 278 279 280 280 279 279 279 279 279 280 281 282 283 284 284 285 285 285 285 284 284 283 283 282 282 282 282 282 282 282 282 282 283 283 283 283 283 284 284 284 284 284 284 283 283 282 282 282 282 281 281 281 280 280 280 280 279 279 279 278 278 277 276 276 275 274 273 272 271 270 269 267 266 266 266 266 266 267 267 267
278 278 278 278 279 280 281 282 282 282 281 281 281 282 282 283 283 283 284 284 284 284 284 284 284 283 283 283 282 282 282 281 281 281 281 281 282 282 282 283 283 283 283 283 284 284 284 283 283 282 281 281 280 280 280 279 279 278 278 277 277 277 277 277 277 277 276 276 275 274 273 273 272 271 270 269 267 266 265 264 263 263 263 263 264
Height
5880 5878 5876 5874 5872 5870 5868 5865 5863 5860 5858 5855 5853 5850 5847 5844 5841 5838 5836 5833 5830 5827 5824 5822 5819 5816 5813 5811 5809 5806 5803 5801 5798 5796 5793 5790 5787 5784 5782 5780 5778 5777 5775 5773 5771 5771 5771 5771 5771 5771 5771 5772 5774 5775 5775 5775 5777 5779 5782 5784 5785 5788 5791 5793 5798 5805 5806 5806 5809 5812 5813 5816 5818 5820 5822 5823 5825 5826 5828 5832 5835 5838 5840 5843 5846
5876 5874 5872 5870 5868 5866 5864 5862 5859 5856 5854 5851 5849 5846 5843 5840 5837 5834 5831 5828 5825 5822 5819 5816 5814 5811 5808 5806 5804 5801 5798 5796 5793 5791 5789 5785 5782 5778 5775 5773 5772 5771 5769 5766 5764 5763 5763 5764 5764 5764 5764 5765 5767 5768 5769 5771 5772 5773 5776 5778 5779 5782 5785 5788 5792 5798 5800 5801 5803 5805 5807 5810 5812 5814 5816 5817 5820 5822 5824 5828 5831 5833 5836 5839 5841
5873 5870 5868 5866 5864 5862 5860 5857 5855 5852 5850 5847 5844 5842 5839 5835 5832 5829 5826 5823 5820 5817 5814 5811 5808 5805 5803 5800 5798 5796 5793 5790 5787 5785 5783 5780 5777 5773 5769 5767 5766 5765 5763 5760 5757 5756 5756 5755 5756 5756 5757 5758 5760 5761 5763 5765 5766 5767 5770 5772 5774 5777 5780 5783 5786 5790 5793 5796 5798 5799 5802 5804 5806 5808 5810 5811 5814 5818 5820 5823 5826 5828 5831 5834 5836
5869 5867 5864 5862 5859 5857 5855 5852 5850 5847 5845 5843 5840 5837 5834 5831 5828 5825 5822 5819 5815 5812 5809 5806 5803 5800 5797 5795 5792 5790 5787 5784 5781 5779 5777 5774 5772 5768 5764 5762 5760 5759 5757 5755 5752 5749 5748 5748 5747 5748 5749 5750 5752 5754 5755 5757 5759 5761 5763 5766 5769 5772 5775 5778 5781 5783 5786 5790 5792 5794 5796 5798 5800 5802 5803 5805 5810 5814 5816 5818 5821 5824 5827 5829 5831
5865 5863 5860 5858 5855 5853 5850 5848 5845 5843 5840 5838 5835 5832 5829 5826 5823 5820 5817 5814 5811 5807 5804 5801 5798 5795 5792 5789 5787 5784 5781 5778 5775 5773 5770 5768 5765 5762 5759 5757 5754 5753 5751 5748 5746 5743 5741 5740 5739 5740 5741 5742 5744 5746 5748 5750 5752 5754 5756 5759 5762 5766 5768 5771 5775 5777 5779 5783 5786 5788 5790 5792 5795 5796 5797 5800 5805 5810 5812 5814 5816 5818 5822 5824 5826
5860 5858 5856 5853 5851 5849 5846 5843 5840 5838 5836 5833 5830 5827 5824 5821 5818 5815 5812 5809 5806 5803 5799 5796 5793 5790 5787 5784 5781 5778 5775 5772 5769 5766 5764 5761 5759 5756 5754 5751 5749 5747 5744 5742 5739 5737 5735 5733 5732 5733 5733 5734 5736 5739 5742 5744 5745 5747 5750 5753 5756 5760 5762 5764 5768 5771 5773 5776 5780 5782 5784 5787 5789 5791 5793 5795 5799 5804 5808 5809 5811 5814 5818 5820 5821
5856 5853 5851 5849 5847 5844 5841 5838 5835 5833 5830 5828 5825 5822 5818 5815 5813 5810 5807 5804 5801 5798 5795 5792 5788 5785 5782 5779 5776 5773 5770 5766 5763 5761 5758 5755 5753 5750 5748 5746 5743 5740 5738 5735 5732 5730 5728 5726 5725 5725 5726 5727 5728 5731 5735 5737 5739 5741 5743 5746 5749 5753 5756 5758 5761 5765 5767 5769 5773 5776 5779 5782 5784 5786 5787 5789 5793 5798 5802 5805 5808 5811 5813 5815 5817
5851 5849 5847 5845 5842 5839 5836 5834 5831 5828 5825 5823 5820 5817 5813 5810 5808 5805 5802 5799 5796 5793 5790 5787 5784 5780 5777 5774 5771 5767 5764 5761 5758 5755 5754 5751 5748 5745 5743 5740 5738 5734 5732 5729 5727 5724 5722 5721 5719 5719 5719 5720 5722 5724 5728 5731 5732 5734 5737 5740 5743 5746 5749 5751 5754 5758 5761 5764 5767 5770 5773 5777 5780 5781 5781 5783 5787 5793 5798 5801 5804 5806 5807 5809 5812
5846 5844 5842 5840 5837 5834 5832 5829 5826 5823 5820 5818 5815 5811 5808 5805 5803 5800 5797 5794 5791 5788 5785 5782 5779 5775 5772 5768 5765 5762 5759 5756 5752 5750 5749 5746 5743 5741 5738 5736 5733 5730 5727 5725 5722 5719 5716 5715 5715 5714 5713 5714 5716 5718 5720 5722 5724 5727 5731 5734 5737 5739 5742 5744 5747 5751 5755 5758 5761 5764 5767 5771 5775 5776 5777 5779 5783 5788 5793 5796 5798 5800 5802 5804 5806
5841 5839 5837 5835 5832 5830 5827 5824 5821 5818 5816 5813 5810 5806 5803 5800 5797 5794 5791 5788 5785 5783 5780 5777 5774 5771 5767 5764 5760 5757 5754 5751 5748 5745 5744 5742 5739 5736 5734 5731 5728 5725 5722 5720 5718 5715 5712 5710 5710 5709 5709 5708 5709 5712 5714 5716 5719 5722 5725 5728 5730 5732 5735 5738 5741 5744 5748 5751 5754 5757 5761 5766 5769 5771 5772 5775 5778 5782 5786 5790 5793 5796 5797 5799 5801
5837 5835 5832 5830 5828 5825 5822 5819 5816 5813 5811 5808 5805 5801 5798 5795 5792 5789 5787 5783 5780 5777 5775 5772 5769 5765 5762 5759 5755 5752 5749 5746 5743 5741 5739 5737 5735 5732 5729 5726 5723 5720 5717 5715 5713 5710 5708 5706 5705 5704 5704 5704 5705 5708 5710 5713 5715 5717 5720 5722 5724 5726 5729 5732 5735 5738 5741 5745 5748 5751 5755 5760 5763 5766 5768 5770 5772 5776 5780 5783 5788 5791 5793 5795 5798
5832 5830 5828 5826 5823 5820 5817 5815 5812 5809 5806 5803 5800 5796 5792 5790 5787 5785 5782 5779 5775 5772 5769 5766 5763 5760 5757 5754 5750 5747 5744 5742 5739 5736 5735 5733 5731 5728 5725 5722 5719 5716 5713 5711 5708 5706 5703 5701 5699 5699 5699 5700 5701 5703 5706 5708 5711 5713 5715 5717 5720 5722 5724 5727 5729 5732 5735 5739 5742 5745 5749 5754 5758 5761 5763 5765 5767 5770 5773 5777 5782 5786 5789 5791 5794
5828 5826 5823 5821 5819 5816 5813 5810 5807 5805 5802 5799 5796 5791 5788 5785 5782 5780 5777 5774 5770 5767 5764 5761 5758 5755 5752 5749 5745 5742 5740 5737 5734 5732 5731 5729 5727 5724 5721 5718 5716 5713 5710 5707 5704 5701 5699 5696 5695 5694 5694 5696 5697 5698 5701 5704 5706 5709 5711 5713 5715 5717 5720 5722 5724 5726 5729 5733 5736 5740 5745 5749 5753 5756 5759 5760 5762 5764 5768 5772 5778 5781 5783 5787 5789
5824 5821 5819 5816 5814 5811 5808 5805 5803 5800 5797 5794 5791 5787 5784 5781 5778 5775 5772 5769 5766 5762 5759 5755 5752 5749 5746 5744 5741 5738 5736 5733 5730 5728 5727 5725 5723 5720 5718 5715 5712 5709 5706 5703 5701 5698 5695 5692 5691 5690 5690 5691 5692 5694 5697 5699 5701 5704 5706 5708 5710 5712 5714 5717 5719 5720 5723 5727 5731 5736 5740 5744 5748 5751 5754 5755 5757 5760 5764 5768 5772 5775 5778 5782 5784
5819 5817 5814 5811 5809 5806 5804 5801 5798 5795 5792 5789 5786 5783 5780 5777 5774 5771 5767 5764 5760 5757 5754 5750 5747 5744 5741 5739 5736 5734 5732 5730 5727 5725 5724 5722 5720 5717 5715 5712 5709 5706 5702 5699 5697 5694 5691 5689 5687 5686 5686 5686 5687 5690 5692 5694 5696 5698 5700 5702 5704 5706 5708 5711 5714 5716 5719 5722 5726 5730 5734 5738 5742 5746 5748 5750 5752 5755 5759 5762 5765 5769 5772 5776 5778
5813 5811 5809 5806 5803 5801 5798 5796 5793 5790 5787 5784 5781 5778 5775 5772 5769 5766 5762 5758 5755 5752 5749 5746 5743 5739 5736 5734 5732 5730 5728 5726 5724 5722 5720 5719 5717 5714 5711 5709 5706 5703 5699 5696 5694 5691 5688 5686 5684 5682 5682 5682 5682 5684 5687 5689 5692 5693 5695 5697 5699 5700 5703 5705 5708 5711 5714 5717 5720 5724 5728 5731 5735 5739 5742 5744 5747 5750 5752 5755 5759 5762 5765 5769 5772
5808 5806 5803 5800 5798 5796 5793 5791 5788 5785 5782 5779 5776 5773 5770 5767 5763 5760 5757 5753 5750 5747 5744 5742 5739 5736 5733 5730 5728 5726 5724 5722 5721 5719 5718 5716 5714 5711 5709 5706 5704 5701 5697 5693 5691 5689 5686 5683 5681 5678 5678 5677 5678 5680 5682 5685 5687 5689 5690 5692 5693 5696 5698 5701 5702 5705 5708 5711 5714 5718 5722 5725 5729 5733 5735 5738 5742 5745 5747 5749 5753 5757 5760 5763 5767
5803 5800 5798 5795 5793 5790 5788 5786 5783 5781 5778 5774 5771 5767 5764 5761 5758 5755 5752 5749 5746 5743 5740 5737 5734 5731 5729 5727 5725 5723 5721 5719 5717 5716 5715 5713 5711 5709 5706 5704 5701 5699 5695 5691 5688 5686 5684 5681 5678 5676 5674 5674 5674 5675 5677 5680 5682 5684 5686 5687 5688 5691 5694 5696 5697 5700 5704 5706 5710 5714 5717 5720 5724 5728 5730 5733 5737 5740 5741 5744 5748 5751 5754 5758 5763
5798 5795 5793 5790 5787 5785 5783 5781 5778 5776 5773 5769 5766 5762 5759 5756 5753 5750 5747 5744 5741 5738 5735 5733 5731 5728 5726 5724 5722 5720 5718 5716 5714 5713 5712 5711 5708 5706 5704 5702 5699 5696 5693 5689 5687 5684 5682 5679 5677 5674 5672 5671 5672 5672 5673 5674 5676 5679 5681 5682 5683 5686 5689 5691 5693 5696 5699 5703 5706 5710 5714 5716 5720 5723 5726 5729 5732 5734 5736 5739 5742 5744 5748 5754 5759
5793 5791 5788 5785 5782 5780 5778 5775 5773 5770 5767 5764 5760 5757 5754 5751 5747 5744 5741 5739 5736 5733 5730 5728 5727 5725 5723 5721 5719 5717 5716 5714 5713 5711 5709 5708 5706 5703 5701 5699 5697 5694 5691 5688 5685 5683 5680 5677 5675 5672 5670 5668 5669 5669 5669 5670 5671 5673 5675 5677 5679 5682 5684 5686 5690 5694 5697 5699 5702 5706 5709 5712 5715 5718 5721 5724 5726 5728 5730 5733 5736 5738 5743 5749 5754
5788 5786 5783 5780 5777 5774 5772 5770 5767 5765 5762 5758 5755 5752 5749 5745 5742 5739 5736 5734 5731 5728 5725 5724 5723 5722 5720 5718 5716 5714 5713 5711 5710 5708 5706 5704 5703 5700 5698 5696 5695 5693 5689 5686 5683 5681 5678 5675 5673 5671 5668 5666 5666 5666 5666 5666 5666 5668 5670 5671 5674 5678 5681 5683 5687 5691 5694 5696 5699 5702 5705 5708 5710 5714 5717 5719 5721 5724 5726 5729 5732 5734 5738 5744 5748
5783 5780 5777 5775 5772 5769 5766 5764 5761 5758 5756 5753 5750 5746 5743 5739 5736 5733 5730 5728 5726 5724 5721 5719 5718 5717 5716 5714 5712 5711 5710 5708 5706 5704 5703 5702 5700 5697 5695 5694 5692 5690 5687 5684 5681 5679 5676 5673 5670 5669 5666 5664 5663 5663 5663 5663 5663 5664 5665 5667 5670 5675 5678 5680 5683 5687 5690 5692 5695 5698 5701 5704 5707 5709 5712 5715 5717 5720 5722 5724 5726 5728 5732 5738 5743
5776 5774 5772 5769 5766 5763 5760 5758 5755 5752 5749 5746 5743 5740 5737 5734 5730 5728 5725 5723 5721 5719 5717 5715 5714 5713 5712 5711 5709 5709 5708 5705 5703 5702 5701 5700 5698 5696 5693 5691 5690 5687 5685 5682 5679 5677 5674 5671 5668 5666 5665 5662 5660 5660 5660 5661 5661 5661 5662 5664 5668 5672 5674 5676 5679 5683 5685 5687 5690 5693 5696 5699 5702 5704 5707 5710 5712 5714 5716 5719 5721 5723 5727 5732 5736
5771 5769 5766 5763 5760 5757 5755 5752 5749 5746 5743 5740 5737 5733 5731 5728 5725 5723 5720 5718 5716 5714 5712 5711 5710 5710 5709 5708 5706 5706 5704 5701 5699 5699 5699 5698 5696 5694 5692 5689 5688 5685 5682 5679 5677 5675 5672 5669 5666 5664 5663 5660 5658 5657 5658 5658 5659 5658 5659 5661 5665 5667 5669 5672 5674 5677 5679 5682 5684 5687 5690 5693 5695 5698 5701 5703 5705 5708 5710 5713 5716 5718 5721 5726 5730
5766 5763 5761 5758 5755 5752 5749 5746 5744 5741 5737 5734 5731 5728 5725 5723 5720 5718 5715 5713 5712 5710 5708 5707 5706 5706 5705 5704 5704 5703 5702 5699 5696 5696 5695 5694 5693 5692 5690 5688 5686 5684 5681 5678 5675 5674 5671 5668 5665 5663 5661 5659 5657 5656 5655 5656 5656 5656 5655 5657 5660 5663 5665 5667 5670 5672 5675 5678 5680 5683 5686 5688 5690 5692 5694 5696 5699 5701 5704 5707 5710 5713 5717 5721 5724
5761 5758 5755 5752 5750 5747 5744 5741 5739 5735 5732 5728 5726 5723 5720 5717 5715 5713 5711 5709 5707 5705 5704 5703 5702 5702 5701 5701 5700 5699 5698 5695 5693 5692 5692 5691 5690 5689 5687 5685 5684 5682 5679 5676 5674 5672 5670 5667 5664 5661 5659 5657 5656 5654 5653 5653 5654 5654 5653 5654 5657 5659 5661 5663 5666 5668 5670 5673 5676 5679 5681 5683 5685 5687 5689 5691 5693 5696 5698 5702 5705 5708 5711 5715 5718
5755 5752 5750 5747 5744 5742 5739 5736 5733 5730 5727 5724 5720 5718 5716 5713 5710 5708 5706 5705 5703 5701 5700 5699 5698 5698 5698 5697 5696 5695 5694 5692 5690 5690 5689 5689 5688 5686 5685 5683 5682 5680 5678 5675 5672 5670 5669 5666 5663 5661 5658 5656 5654 5653 5652 5651 5652 5652 5652 5652 5653 5656 5658 5660 5662 5663 5665 5668 5671 5673 5675 5677 5680 5682 5685 5687 5689 5691 5695 5698 5700 5703 5706 5709 5713
5749 5747 5744 5741 5739 5737 5734 5731 5727 5724 5721 5719 5715 5712 5710 5708 5706 5703 5701 5700 5698 5697 5696 5695 5694 5694 5694 5694 5693 5692 5690 5689 5688 5687 5686 5686 5685 5683 5682 5681 5680 5678 5676 5674 5671 5669 5667 5665 5663 5661 5659 5656 5654 5652 5651 5650 5650 5650 5650 5650 5650 5652 5655 5657 5659 5660 5661 5663 5666 5668 5670 5671 5674 5676 5679 5682 5685 5688 5691 5694 5696 5699 5702 5705 5708
5744 5741 5738 5736 5733 5731 5729 5726 5723 5720 5717 5714 5712 5708 5705 5703 5701 5699 5696 5694 5693 5692 5691 5691 5691 5691 5691 5690 5689 5688 5687 5686 5685 5684 5684 5683 5682 5681 5680 5679 5677 5676 5675 5673 5671 5668 5667 5665 5662 5660 5658 5656 5654 5652 5650 5649 5648 5648 5648 5649 5649 5649 5651 5654 5656 5658 5659 5660 5662 5664 5665 5667 5669 5671 5673 5677 5680 5682 5685 5689 5693 5696 5698 5701 5704
5738 5735 5733 5731 5729 5726 5724 5721 5718 5715 5712 5710 5707 5704 5701 5698 5695 5692 5690 5689 5688 5687 5687 5687 5687 5687 5687 5687 5686 5685 5684 5683 5682 5682 5681 5680 5679 5678 5677 5676 5676 5674 5673 5672 5670 5668 5666 5665 5663 5660 5658 5656 5654 5652 5650 5648 5647 5646 5646 5647 5648 5648 5648 5650 5652 5655 5656 5658 5659 5661 5662 5664 5666 5668 5670 5672 5674 5677 5680 5683 5688 5691 5694 5696 5700
5732 5730 5727 5725 5723 5721 5719 5716 5714 5711 5708 5705 5702 5699 5696 5693 5690 5687 5685 5684 5683 5683 5683 5684 5684 5684 5684 5684 5683 5682 5682 5681 5680 5679 5678 5677 5677 5676 5675 5674 5674 5673 5671 5670 5669 5667 5665 5664 5663 5661 5658 5656 5654 5652 5650 5648 5647 5645 5645 5645 5646 5646 5647 5647 5649 5651 5653 5655 5656 5658 5660 5662 5664 5665 5667 5669 5670 5673 5676 5678 5682 5685 5688 5690 5694
5727 5724 5722 5720 5718 5715 5713 5711 5709 5706 5704 5701 5698 5695 5691 5689 5686 5684 5682 5680 5680 5680 5681 5681 5682 5682 5681 5681 5680 5680 5679 5679 5678 5677 5676 5675 5675 5674 5673 5672 5671 5671 5670 5669 5667 5666 5664 5663 5662 5660 5658 5656 5654 5652 5650 5648 5646 5645 5644 5643 5644 5644 5645 5645 5646 5648 5650 5651 5653 5655 5657 5659 5660 5661 5663 5665 5667 5668 5671 5674 5677 5680 5682 5685 5689
5721 5719 5717 5715 5713 5711 5709 5706 5704 5702 5699 5697 5694 5690 5687 5686 5684 5682 5680 5679 5678 5678 5679 5679 5679 5679 5679 5678 5678 5678 5677 5677 5676 5675 5674 5673 5672 5672 5671 5670 5669 5668 5667 5667 5666 5664 5663 5661 5660 5659 5658 5656 5654 5652 5650 5648 5646 5645 5644 5643 5642 5642 5642 5643 5645 5646 5646 5647 5649 5651 5653 5655 5657 5658 5660 5662 5663 5665 5668 5670 5673 5676 5678 5681 5684
5716 5713 5711 5709 5707 5706 5704 5702 5700 5698 5695 5693 5690 5687 5684 5683 5682 5680 5678 5677 5677 5676 5676 5677 5676 5676 5676 5676 5676 5675 5675 5674 5674 5673 5672 5671 5670 5669 5668 5668 5667 5666 5665 5664 5664 5662 5661 5660 5659 5658 5657 5655 5654 5652 5650 5648 5647 5646 5644 5643 5642 5641 5641 5642 5643 5644 5644 5645 5645 5647 5649 5651 5652 5654 5656 5658 5660 5662 5665 5667 5669 5671 5674 5676 5679
5710 5708 5706 5704 5702 5700 5699 5697 5696 5694 5692 5689 5687 5684 5682 5680 5679 5677 5676 5676 5675 5674 5674 5674 5674 5674 5674 5673 5673 5673 5672 5671 5671 5670 5669 5668 5667 5666 5666 5665 5664 5664 5663 5662 5662 5661 5659 5658 5657 5656 5655 5655 5653 5652 5650 5649 5647 5646 5645 5644 5643 5642 5641 5641 5641 5642 5643 5643 5643 5643 5645 5647 5649 5651 5652 5654 5656 5658 5661 5663 5665 5667 5670 5672 5674
5704 5703 5701 5699 5697 5696 5694 5693 5691 5690 5688 5685 5683 5681 5680 5678 5677 5675 5675 5674 5674 5673 5672 5671 5671 5671 5671 5671 5671 5670 5669 5668 5668 5668 5667 5666 5665 5664 5663 5663 5662 5661 5661 5660 5659 5659 5658 5657 5656 5655 5654 5653 5652 5651 5650 5649 5647 5646 5645 5644 5643 5643 5642 5641 5641 5641 5641 5641 5641 5641 5642 5644 5646 5647 5649 5651 5653 5654 5656 5658 5660 5663 5665 5667 5669
5699 5697 5696 5694 5692 5691 5690 5688 5687 5686 5684 5682 5680 5678 5677 5676 5675 5673 5672 5671 5671 5670 5669 5669 5669 5669 5669 5669 5668 5667 5666 5666 5665 5664 5664 5663 5663 5662 5661 5660 5660 5659 5658 5658 5657 5657 5656 5655 5654 5653 5652 5652 5651 5650 5649 5648 5647 5646 5645 5644 5644 5643 5642 5642 5641 5641 5640 5640 5640 5640 5640 5642 5643 5644 5646 5647 5649 5651 5653 5655 5656 5658 5660 5662 5664
5694 5692 5690 5689 5687 5686 5685 5683 5682 5681 5680 5678 5677 5675 5674 5673 5672 5671 5669 5668 5667 5667 5666 5666 5666 5666 5665 5665 5665 5664 5663 5662 5662 5661 5661 5660 5660 5659 5658 5658 5657 5657 5656 5656 5655 5655 5654 5654 5653 5652 5651 5650 5649 5649 5648 5647 5647 5646 5645 5644 5644 5643 5642 5642 5641 5641 5641 5640 5640 5639 5640 5640 5641 5642 5643 5644 5645 5647 5649 5651 5653 5655 5656 5657 5659
5689 5687 5685 5683 5682 5681 5680 5678 5677 5676 5675 5674 5673 5672 5670 5669 5668 5667 5666 5665 5664 5663 5663 5662 5662 5662 5662 5661 5661 5660 5660 5659 5659 5658 5658 5657 5657 5656 5655 5655 5654 5654 5654 5654 5653 5653 5652 5652 5651 5650 5649 5649 5648 5647 5647 5646 5645 5645 5644 5643 5643 5643 5642 5642 5641 5641 5641 5641 5640 5640 5640 5640 5640 5641 5641 5642 5643 5644 5646 5647 5649 5651 5652 5654 5655
5683 5681 5680 5678 5677 5675 5674 5673 5672 5671 5670 5670 5669 5668 5667 5665 5664 5663 5662 5661 5660 5660 5659 5659 5658 5658 5658 5658 5657 5657 5656 5655 5655 5655 5654 5654 5653 5653 5652 5652 5652 5651 5651 5651 5651 5650 5650 5650 5649 5649 5648 5647 5646 5646 5645 5644 5644 5643 5643 5642 5642 5641 5641 5641 5641 5640 5640 5640 5640 5641 5640 5640 5640 5640 5640 5641 5642 5643 5644 5644 5645 5647 5648 5649 5651
5678 5676 5674 5673 5671 5670 5669 5668 5667 5666 5666 5665 5664 5664 5662 5661 5660 5659 5658 5658 5657 5656 5656 5655 5654 5654 5654 5653 5653 5652 5652 5651 5651 5650 5650 5650 5650 5649 5649 5649 5649 5648 5648 5647 5647 5647 5647 5647 5647 5646 5646 5645 5645 5644 5644 5643 5642 5642 5641 5641 5640 5640 5640 5640 5639 5639 5639 5639 5639 5639 5639 5640 5640 5640 5640 5640 5641 5642 5642 5643 5643 5644 5645 5645 5646
5672 5671 5669 5668 5667 5666 5665 5664 5663 5662 5661 5661 5660 5659 5658 5657 5656 5655 5655 5654 5653 5653 5652 5651 5650 5650 5649 5649 5648 5648 5647 5647 5646 5646 5645 5645 5645 5645 5645 5645 5645 5644 5644 5644 5643 5643 5643 5643 5643 5643 5643 5643 5642 5642 5641 5641 5641 5640 5640 5639 5639 5638 5638 5638 5637 5637 5637 5637 5637 5637 5637 5637 5638 5639 5639 5639 5639 5640 5641 5641 5642 5642 5642 5643 5643
5667 5666 5664 5663 5662 5662 5661 5660 5659 5658 5658 5656 5655 5655 5654 5653 5652 5651 5650 5650 5649 5648 5648 5647 5646 5646 5645 5644 5644 5644 5643 5643 5642 5642 5641 5641 5641 5641 5641 5640 5640 5640 5640 5639 5639 5639 5639 5639 5639 5639 5639 5639 5639 5639 5638 5638 5638 5638 5638 5638 5637 5637 5636 5636 5635 5635 5635 5635 5634 5634 5634 5634 5635 5635 5636 5636 5637 5638 5638 5639 5639 5640 5640 5641 5641
5662 5661 5659 5658 5657 5657 5656 5655 5655 5654 5654 5652 5651 5650 5650 5649 5648 5647 5646 5645 5644 5644 5643 5643 5642 5642 5641 5640 5640 5639 5639 5639 5638 5638 5638 5638 5637 5637 5636 5636 5636 5636 5636 5635 5635 5635 5635 5635 5635 5635 5635 5635 5635 5635 5635 5635 5634 5634 5634 5635 5635 5634 5634 5634 5634 5633 5633 5632 5632 5632 5632 5632 5632 5632 5632 5632 5633 5634 5635 5636 5636 5637 5637 5638 5638
5656 5655 5654 5653 5653 5652 5651 5651 5650 5649 5649 5648 5647 5646 5645 5644 5644 5643 5642 5641 5640 5639 5639 5638 5638 5637 5636 5635 5635 5635 5634 5634 5634 5634 5634 5633 5633 5632 5632 5632 5632 5631 5631 5631 5630 5630 5630 5629 5629 5629 5630 5630 5630 5630 5630 5630 5630 5630 5630 5630 5630 5631 5631 5631 5631 5631 5630 5630 5630 5629 5629 5629 5629 5629 5629 5629 5629 5629 5630 5631 5632 5633 5633 5634 5635
5651 5650 5649 5649 5648 5647 5647 5646 5645 5645 5644 5644 5643 5642 5641 5640 5639 5638 5638 5637 5636 5635 5635 5634 5633 5632 5632 5631 5630 5630 5630 5629 5629 5629 5629 5629 5628 5628 5627 5627 5627 5626 5626 5626 5626 5626 5625 5625 5624 5624 5624 5624 5625 5625 5625 5625 5625 5625 5625 5625 5625 5625 5626 5626 5626 5626 5626 5626 5626 5626 5626 5626 5625 5626 5626 5626 5626 5626 5626 5626 5627 5628 5629 5630 5631
5647 5646 5645 5644 5643 5643 5642 5642 5641 5640 5640 5639 5638 5637 5637 5636 5634 5634 5633 5633 5632 5631 5631 5630 5629 5628 5627 5626 5626 5625 5625 5625 5624 5624 5624 5623 5623 5623 5622 5622 5622 5621 5621 5621 5621 5621 5620 5620 5620 5619 5619 5619 5619 5619 5619 5619 5620 5620 5620 5620 5620 5620 5620 5620 5620 5621 5621 5621 5621 5621 5621 5621 5621 5621 5621 5622 5622 5622 5622 5622 5623 5623 5624 5625 5626
5642 5641 5640 5640 5639 5639 5638 5638 5637 5636 5636 5635 5634 5633 5632 5631 5630 5630 5629 5628 5628 5627 5626 5625 5624 5623 5623 5622 5621 5621 5620 5620 5619 5619 5619 5618 5618 5617 5617 5617 5616 5616 5616 5615 5615 5615 5615 5615 5614 5614 5613 5613 5613 5613 5613 5613 5613 5613 5613 5614 5614 5614 5614 5614 5614 5614 5615 5615 5615 5615 5616 5616 5616 5616 5616 5617 5617 5617 5617 5618 5618 5619 5619 5620 5620
5638 5637 5636 5635 5635 5634 5634 5633 5633 5632 5632 5631 5630 5629 5628 5627 5626 5626 5625 5624 5623 5622 5621 5621 5620 5619 5618 5617 5617 5616 5616 5615 5615 5614 5613 5613 5612 5612 5612 5611 5611 5610 5610 5610 5609 5609 5609 5609 5609 5608 5608 5607 5607 5607 5606 5606 5606 5607 5607 5607 5607 5607 5607 5608 5608 5608 5608 5608 5608 5609 5609 5609 5610 5610 5610 5611 5611 5611 5611 5612 5612 5613 5613 5614 5615
5633 5632 5631 5631 5630 5630 5630 5629 5628 5628 5627 5626 5625 5624 5623 5623 5622 5621 5620 5619 5618 5617 5616 5615 5615 5614 5613 5612 5612 5611 5611 5610 5610 5609 5608 5608 5607 5607 5606 5606 5605 5605 5605 5604 5603 5603 5602 5602 5602 5602 5602 5601 5601 5601 5600 5600 5600 5600 5600 5601 5601 5601 5601 5601 5601 5601 5602 5602 5602 5602 5602 5603 5603 5603 5604 5604 5604 5605 5605 5606 5606 5606 5607 5607 5608
5629 5628 5627 5626 5626 5626 5625 5625 5624 5623 5622 5621 5620 5620 5619 5618 5617 5616 5615 5614 5613 5612 5611 5610 5609 5608 5607 5607 5606 5606 5606 5605 5604 5604 5603 5603 5602 5602 5601 5601 5600 5600 5599 5599 5598 5597 5597 5597 5596 5596 5596 5596 5595 5595 5595 5594 5594 5594 5594 5594 5594 5595 5595 5595 5595 5595 5595 5595 5595 5595 5596 5596 5596 5596 5597 5597 5598 5598 5599 5599 5599 5600 5600 5600 5601